When you browse on this site, cookies collect data to enhance your experience and personalize the content and advertising you see.
Visit our Privacy Policy to learn more. By continuing to use the site, you agree to this use of cookies and data.
  • In Hungary
  • List of Countries
  • For 7 days
  • Water Temperature
  • Weather Map
  • News
  • Weather Widgets
  • user-avatar
    Login

    Hourly Weather Nadrowo

    Today, 20 September, Friday

    Time Temperature Precipitation Wind Pressure Humidity
    00:00 +5°C° 0 mm 3 mps 753 mmHg 87%
    01:00 +4°C° 0 mm 3 mps 753 mmHg 87%
    02:00 +4°C° 0 mm 3 mps 753 mmHg 87%
    03:00 +4°C° 0 mm 3 mps 753 mmHg 87%
    04:00 +5°C° 0 mm 2 mps 753 mmHg 87%
    05:00 +6°C° 0 mm 2 mps 753 mmHg 83%
    06:00 +6°C° 0 mm 2 mps 753 mmHg 80%
    07:00 +7°C° 0 mm 2 mps 753 mmHg 76%
    08:00 +9°C° 0.1 mm 3 mps 753 mmHg 71%
    09:00 +10°C° 0.1 mm 3 mps 753 mmHg 65%
    10:00 +12°C° 0.1 mm 3 mps 753 mmHg 60%
    11:00 +12°C° 0.2 mm 3 mps 753 mmHg 58%
    12:00 +12°C° 0.2 mm 4 mps 753 mmHg 56%
    13:00 +13°C° 0.2 mm 4 mps 753 mmHg 54%
    14:00 +13°C° 0.1 mm 3 mps 753 mmHg 53%
    15:00 +13°C° 0.1 mm 3 mps 752 mmHg 53%
    16:00 +14°C° 0.1 mm 2 mps 752 mmHg 52%
    17:00 +13°C° 0 mm 2 mps 752 mmHg 58%
    18:00 +12°C° 0 mm 2 mps 752 mmHg 63%
    19:00 +10°C° 0 mm 3 mps 752 mmHg 68%
    20:00 +10°C° 0.1 mm 3 mps 751 mmHg 74%
    21:00 +10°C° 0.1 mm 3 mps 751 mmHg 80%
    22:00 +10°C° 0.1 mm 3 mps 751 mmHg 86%
    23:00 +10°C° 0.1 mm 4 mps 751 mmHg 87%

    Tomorrow, 21 September, Saturday

    Time Temperature Precipitation Wind Pressure Humidity
    00:00 +11°C° 0.1 mm 4 mps 751 mmHg 89%
    01:00 +10°C° 0.1 mm 5 mps 750 mmHg 91%
    02:00 +10°C° 0 mm 5 mps 750 mmHg 91%
    03:00 +10°C° 0 mm 5 mps 750 mmHg 91%
    04:00 +10°C° 0 mm 5 mps 750 mmHg 91%
    05:00 +10°C° 0 mm 5 mps 750 mmHg 90%
    06:00 +12°C° 0 mm 5 mps 750 mmHg 90%
    07:00 +12°C° 0 mm 5 mps 750 mmHg 89%
    08:00 +12°C° 0 mm 5 mps 750 mmHg 86%
    09:00 +13°C° 0 mm 5 mps 750 mmHg 83%
    10:00 +14°C° 0 mm 5 mps 750 mmHg 80%
    11:00 +14°C° 0 mm 5 mps 750 mmHg 79%
    12:00 +14°C° 0 mm 5 mps 750 mmHg 78%
    13:00 +14°C° 0 mm 4 mps 750 mmHg 77%
    14:00 +14°C° 0 mm 4 mps 750 mmHg 76%
    15:00 +15°C° 0 mm 4 mps 750 mmHg 74%
    16:00 +16°C° 0 mm 3 mps 750 mmHg 73%
    17:00 +14°C° 0 mm 3 mps 750 mmHg 79%
    18:00 +12°C° 0 mm 3 mps 750 mmHg 85%
    19:00 +12°C° 0 mm 2 mps 750 mmHg 92%
    20:00 +12°C° 0 mm 2 mps 750 mmHg 93%
    21:00 +10°C° 0 mm 2 mps 750 mmHg 94%
    22:00 +10°C° 0 mm 2 mps 750 mmHg 95%
    23:00 +10°C° 0 mm 2 mps 750 mmHg 95%

    Day after tomorrow, 22 September, Sunday

    Time Temperature Precipitation Wind Pressure Humidity
    00:00 +10°C° 0 mm 2 mps 750 mmHg 95%
    01:00 +9°C° 0 mm 2 mps 750 mmHg 95%
    02:00 +9°C° 0 mm 2 mps 750 mmHg 95%
    03:00 +9°C° 0 mm 2 mps 750 mmHg 95%
    04:00 +9°C° 0 mm 2 mps 749 mmHg 96%
    05:00 +9°C° 0 mm 2 mps 749 mmHg 93%
    06:00 +10°C° 0 mm 2 mps 749 mmHg 90%
    07:00 +12°C° 0 mm 2 mps 749 mmHg 87%
    08:00 +13°C° 0 mm 3 mps 749 mmHg 79%
    09:00 +16°C° 0 mm 3 mps 749 mmHg 71%
    10:00 +18°C° 0 mm 3 mps 749 mmHg 63%
    11:00 +19°C° 0 mm 3 mps 749 mmHg 59%
    12:00 +20°C° 0 mm 3 mps 749 mmHg 55%
    13:00 +21°C° 0 mm 3 mps 749 mmHg 50%
    14:00 +21°C° 0 mm 2 mps 748 mmHg 52%
    15:00 +21°C° 0 mm 2 mps 748 mmHg 54%
    16:00 +22°C° 0 mm 1 mps 747 mmHg 55%
    17:00 +20°C° 0 mm 1 mps 747 mmHg 62%
    18:00 +18°C° 0 mm 1 mps 747 mmHg 69%
    19:00 +14°C° 0 mm 0 mps 747 mmHg 77%
    20:00 +14°C° 0 mm 1 mps 747 mmHg 79%
    21:00 +13°C° 0 mm 1 mps 747 mmHg 81%
    22:00 +13°C° 0 mm 1 mps 747 mmHg 84%
    23:00 +13°C° 0 mm 1 mps 747 mmHg 85%

    23 September, Monday

    Time Temperature Precipitation Wind Pressure Humidity
    00:00 +12°C° 0 mm 1 mps 747 mmHg 86%
    01:00 +12°C° 0 mm 2 mps 747 mmHg 88%
    02:00 +12°C° 0 mm 2 mps 746 mmHg 89%
    03:00 +10°C° 0 mm 2 mps 746 mmHg 91%
    04:00 +10°C° 0 mm 2 mps 746 mmHg 93%
    05:00 +12°C° 0 mm 2 mps 746 mmHg 91%
    06:00 +11°C° 0 mm 3 mps 745 mmHg 88%
    07:00 +12°C° 0 mm 3 mps 745 mmHg 86%
    08:00 +14°C° 0 mm 3 mps 745 mmHg 78%
    09:00 +15°C° 0 mm 4 mps 745 mmHg 70%
    10:00 +18°C° 0 mm 4 mps 745 mmHg 63%
    11:00 +19°C° 0 mm 4 mps 745 mmHg 59%
    12:00 +20°C° 0 mm 4 mps 744 mmHg 55%
    13:00 +21°C° 0 mm 4 mps 744 mmHg 51%
    14:00 +21°C° 0 mm 4 mps 744 mmHg 53%
    15:00 +21°C° 0 mm 3 mps 744 mmHg 54%
    16:00 +20°C° 0 mm 3 mps 743 mmHg 56%
    17:00 +18°C° 0 mm 3 mps 743 mmHg 64%
    18:00 +16°C° 0 mm 2 mps 743 mmHg 71%
    19:00 +15°C° 0 mm 2 mps 743 mmHg 79%
    20:00 +14°C° 0 mm 2 mps 744 mmHg 83%
    21:00 +13°C° 0 mm 2 mps 744 mmHg 86%
    22:00 +12°C° 0 mm 2 mps 744 mmHg 90%
    23:00 +12°C° 0 mm 2 mps 744 mmHg 92%

    24 September, Tuesday

    Time Temperature Precipitation Wind Pressure Humidity
    00:00 +12°C° 0 mm 2 mps 744 mmHg 94%
    01:00 +10°C° 0 mm 2 mps 744 mmHg 96%
    02:00 +10°C° 0 mm 2 mps 744 mmHg 96%
    03:00 +10°C° 0 mm 2 mps 744 mmHg 96%
    04:00 +9°C° 0 mm 2 mps 744 mmHg 97%
    05:00 +9°C° 0 mm 2 mps 744 mmHg 95%
    06:00 +10°C° 0 mm 2 mps 745 mmHg 93%
    07:00 +10°C° 0 mm 2 mps 745 mmHg 91%
    08:00 +13°C° 0 mm 2 mps 745 mmHg 82%
    09:00 +15°C° 0 mm 2 mps 746 mmHg 74%
    10:00 +17°C° 0 mm 3 mps 746 mmHg 66%
    11:00 +18°C° 0 mm 2 mps 746 mmHg 63%
    12:00 +19°C° 0 mm 2 mps 746 mmHg 59%
    13:00 +20°C° 0 mm 2 mps 746 mmHg 56%
    14:00 +19°C° 0 mm 2 mps 746 mmHg 57%
    15:00 +19°C° 0 mm 2 mps 746 mmHg 59%
    16:00 +19°C° 0 mm 2 mps 746 mmHg 60%
    17:00 +18°C° 0 mm 2 mps 746 mmHg 65%
    18:00 +16°C° 0 mm 2 mps 746 mmHg 69%
    19:00 +14°C° 0 mm 3 mps 746 mmHg 74%
    20:00 +13°C° 0 mm 3 mps 746 mmHg 77%
    21:00 +12°C° 0 mm 3 mps 746 mmHg 79%
    22:00 +11°C° 0 mm 3 mps 746 mmHg 82%
    23:00 +10°C° 0 mm 3 mps 746 mmHg 83%

    25 September, Wednesday

    Time Temperature Precipitation Wind Pressure Humidity
    00:00 +10°C° 0 mm 3 mps 746 mmHg 84%
    01:00 +10°C° 0 mm 3 mps 745 mmHg 84%
    02:00 +9°C° 0 mm 3 mps 745 mmHg 85%
    03:00 +9°C° 0 mm 3 mps 745 mmHg 86%
    04:00 +9°C° 0 mm 3 mps 745 mmHg 87%
    05:00 +9°C° 0 mm 3 mps 744 mmHg 84%
    06:00 +10°C° 0 mm 3 mps 744 mmHg 82%
    07:00 +10°C° 0 mm 4 mps 744 mmHg 79%
    08:00 +11°C° 0 mm 4 mps 744 mmHg 77%
    09:00 +12°C° 0 mm 4 mps 744 mmHg 75%
    10:00 +12°C° 0 mm 4 mps 744 mmHg 73%
    11:00 +14°C° 0.1 mm 4 mps 743 mmHg 71%
    12:00 +15°C° 0.1 mm 4 mps 743 mmHg 69%
    13:00 +17°C° 0.1 mm 4 mps 742 mmHg 67%
    14:00 +17°C° 0 mm 4 mps 742 mmHg 68%
    15:00 +17°C° 0 mm 3 mps 742 mmHg 70%
    16:00 +17°C° 0 mm 3 mps 741 mmHg 71%
    17:00 +16°C° 0 mm 3 mps 741 mmHg 76%
    18:00 +14°C° 0 mm 3 mps 741 mmHg 80%
    19:00 +13°C° 0 mm 3 mps 741 mmHg 85%
    20:00 +14°C° 0 mm 2 mps 741 mmHg 87%
    21:00 +13°C° 0 mm 2 mps 740 mmHg 88%
    22:00 +13°C° 0 mm 2 mps 740 mmHg 90%
    23:00 +13°C° 0.4 mm 2 mps 740 mmHg 92%
    Show more